ヴィルト第2彗星

81P/Wild 2 (2016)

English version
Home page
Updated on August 10, 2016

---------------------------------------------------------------------

・ プロフィール

・ 写真集

・ 軌道要素

Epoch 2016 July 31.0 TT = JDT 2457600.5
T 2016 July 20.30994 TT                                 MPCW
q   1.5921668            (2000.0)            P               Q
n   0.15386408     Peri.   41.69741     -0.99854201     -0.03715356
a   3.4491432      Node   136.12596     +0.02059882     -0.93281244
e   0.5383877      Incl.    3.23899     +0.04989527     -0.35844185
P   6.41
From 4240 observations 2002 Sept. 5-2016 Feb. 18, mean residual 0".6.
     Nongravitational parameters A1 = -0.04, A2 = -0.0133.

・ 星図

・ 光度変化

        m1 = 6.3 + 5 logΔ + 18.0 log r(t + 20)  [  ,95]  (              〜2016年10月23日)
        m1 = 8.2 + 5 logΔ + 12.5 log r          [95,  ]  (2016年10月23日〜              )

---------------------------------------------------------------------

軌道要素はM.P.E.C. 2016-D32に掲載されたものです。
星図はステラナビゲータ Ver.8 (アストロアーツ) で作成したものです。
光度グラフはComet for Windowsで作成したものです。

---------------------------------------------------------------------

Copyright(C) Seiichi Yoshida (comet@aerith.net). All rights reserved.